Location: Golden Pond Observatory
(36.7773°N, 88.0631°W)
Time: 02:56:10
(UTC-06:00)

Hubble Space Telescope - Pass Details

Date: 27 November 2019
Orbit: 536 x 540 km, 28.5° (Epoch: 07 December)

Event Time Altitude Azimuth Distance (km) Brightness Sun altitude
Rises 18:39:55 0° 254° (WSW) 2,668 5.7 -24.2°
Reaches altitude 10° 18:43:34 10° 221° (SW) 1,776 4.0 -24.9°
Maximum altitude 18:45:00 12° 200° (SSW) 1,676 3.6 -25.2°
Drops below altitude 10° 18:46:26 10° 179° (S) 1,775 3.5 -25.5°
Enters shadow 18:46:27 10° 179° (S) 1,776 3.5 -25.5°
